GW3945 Weather Reports


Display with metric or nautical units.
time (UTC)temp
F
wind
direction
speed
MPH
gust
MPH
rain 1hr
in
rain 24hr
in
rain mn
in
humidity
%
barometer
mb
20260905053615 76 196 0.0 0.0 0.00 0.00 0.00 95 1012.8
20260905053110 77 197 0.0 0.0 0.00 0.00 0.00 95 1012.8
20260905052609 77 197 0.0 0.0 0.00 0.00 0.00 94 1013.0
20260905052104 77 197 0.0 0.0 0.00 0.00 0.00 94 1012.9
20260905051559 77 221 0.0 0.0 0.00 0.00 0.00 94 1012.7
20260905051056 77 195 0.0 0.0 0.00 0.00 0.00 94 1012.5
20260905050552 77 194 0.0 0.0 0.00 0.00 0.00 94 1012.6
20260905050049 77 194 0.0 0.0 0.00 0.00 0.00 94 1012.7
20260905045543 77 194 0.0 0.0 0.00 0.00 0.00 94 1012.5
20260905045038 78 201 0.0 0.0 0.00 0.00 0.00 94 1012.6
20260905044532 78 192 0.0 0.0 0.00 0.00 0.00 93 1012.8
20260905044027 78 190 0.0 0.0 0.00 0.00 0.00 93 1012.9
20260905043526 78 198 0.0 0.0 0.00 0.00 0.00 91 1012.9
20260905043022 78 216 0.0 0.0 0.00 0.00 0.00 93 1013.0
20260905042520 78 220 0.0 0.0 0.00 0.00 0.00 93 1012.8
20260905042016 79 220 0.0 0.0 0.00 0.00 0.00 90 1012.9
20260905041511 78 237 0.0 0.0 0.00 0.00 0.00 90 1012.9
20260905041007 79 220 0.0 0.0 0.00 0.00 0.00 92 1012.9
20260905040506 79 220 0.0 0.0 0.00 0.00 0.00 91 1013.3
20260905040005 78 245 0.0 0.0 0.00 0.00 0.00 90 1013.2
20260905035500 78 243 0.0 0.0 0.00 0.00 0.00 93 1013.2
20260905034958 79 218 0.0 0.0 0.00 0.00 0.00 92 1013.2
20260905034458 79 220 0.0 0.0 0.00 0.00 0.00 91 1013.5
20260905033956 79 226 0.0 0.0 0.00 0.00 0.00 90 1013.3
20260905033451 78 215 0.0 0.0 0.00 0.00 0.00 92 1013.4
20260905032946 77 215 0.0 0.0 0.00 0.00 0.00 94 1013.5
20260905032441 78 203 0.0 0.0 0.00 0.00 0.00 95 1013.3
20260905031936 78 207 0.0 0.0 0.00 0.00 0.00 95 1013.3
20260905031432 79 223 0.0 0.0 0.00 0.00 0.00 92 1013.5
20260905030927 80 226 0.0 0.0 0.00 0.00 0.00 92 1013.5
20260905030423 80 216 0.0 0.0 0.00 0.00 0.00 91 1013.4
20260905025921 79 227 0.0 0.0 0.00 0.00 0.00 88 1013.3
20260905025417 79 218 0.0 0.0 0.00 0.00 0.00 92 1013.5
20260905024914 82 219 0.0 0.0 0.00 0.00 0.00 89 1013.3
20260905024413 82 228 0.0 0.0 0.00 0.00 0.00 86 1013.6
20260905023909 82 226 0.0 0.0 0.00 0.00 0.00 82 1013.4
20260905023404 81 234 0.0 0.0 0.00 0.00 0.00 84 1013.6
20260905022903 80 251 0.0 0.0 0.00 0.00 0.00 88 1013.4
20260905022353 81 217 0.0 0.0 0.00 0.00 0.00 90 1013.5
20260905021848 81 225 0.0 0.0 0.00 0.00 0.00 85 1013.4
20260905021343 81 245 0.0 0.0 0.00 0.00 0.00 89 1013.4
20260905020838 82 217 0.0 0.0 0.00 0.00 0.00 89 1013.5
20260905020332 82 223 0.0 0.0 0.00 0.00 0.00 85 1013.4
20260905015832 81 238 0.0 0.0 0.00 0.00 0.00 87 1013.5
20260905015331 81 216 0.0 0.0 0.00 0.00 0.00 90 1013.5
20260905014825 82 215 0.0 0.0 0.00 0.00 0.00 90 1013.4
20260905014321 82 222 0.0 0.0 0.00 0.00 0.00 86 1013.5
20260905013816 82 220 0.0 0.0 0.00 0.00 0.00 86 1013.5
20260905013312 82 217 0.0 0.0 0.00 0.00 0.00 89 1013.3
20260905012807 82 236 0.0 0.0 0.00 0.00 0.00 89 1013.0
20260905012306 82 223 0.0 0.0 0.00 0.00 0.00 85 1013.2
20260905011759 80 227 0.0 0.0 0.00 0.00 0.00 87 1013.0
20260905011255 80 243 0.0 0.0 0.00 0.00 0.00 93 1013.5
20260905010755 82 160 2.0 2.0 0.00 0.00 0.00 92 1013.4
20260905010250 82 223 0.0 0.0 0.00 0.00 0.00 89 1012.8
20260905005747 82 228 0.0 0.0 0.00 0.00 0.00 90 1012.8
20260905005242 83 228 0.0 0.0 0.00 0.00 0.00 89 1012.7
20260905004741 84 221 0.0 0.0 0.00 0.00 0.00 88 1012.6
20260905004242 85 221 0.0 0.0 0.00 0.00 0.00 86 1012.8
20260905003742 85 222 0.0 0.0 0.00 0.00 0.00 84 1012.8
20260905003237 85 224 0.0 0.0 0.00 0.00 0.00 82 1012.7
20260905002734 85 224 0.0 0.0 0.00 0.00 0.00 81 1012.9
20260905002234 85 228 0.0 0.0 0.00 0.00 0.00 83 1012.8
20260905001729 85 226 0.0 0.0 0.00 0.00 0.00 85 1012.9
20260905001228 86 228 0.0 0.0 0.00 0.00 0.00 86 1013.0
20260905000724 86 225 0.0 0.0 0.00 0.00 0.00 85 1012.9
20260905000219 86 225 0.0 0.0 0.00 0.00 0.00 84 1012.8
20260904235715 87 225 0.0 0.0 0.00 0.00 0.00 83 1012.8
20260904235209 87 225 0.0 0.0 0.00 0.00 0.00 83 1012.8
20260904234703 87 225 0.0 0.0 0.00 0.00 0.00 83 1012.7
20260904234159 88 225 0.0 0.0 0.00 0.00 0.00 82 1012.7
20260904233655 88 225 0.0 0.0 0.00 0.00 0.00 81 1012.4
20260904233150 88 225 0.0 0.0 0.00 0.00 0.00 78 1012.6
20260904232647 88 225 0.0 0.0 0.00 0.00 0.00 75 1012.8
20260904232143 88 225 0.0 0.0 0.00 0.00 0.00 74 1012.7
20260904231638 88 225 0.0 0.0 0.00 0.00 0.00 72 1012.5
20260904231133 88 225 0.0 0.0 0.00 0.00 0.00 78 1012.4
20260904230632 88 225 0.0 0.0 0.00 0.00 0.00 80 1012.4
20260904230128 88 225 0.0 0.0 0.00 0.00 0.00 80 1012.3
20260904225626 87 225 0.0 0.0 0.00 0.00 0.00 78 1012.4
20260904225120 88 225 0.0 0.0 0.00 0.00 0.00 77 1012.4
20260904224615 88 226 0.0 0.0 0.00 0.00 0.00 75 1012.4
20260904224110 88 223 0.0 0.0 0.00 0.00 0.00 75 1012.3
20260904223609 88 224 0.0 0.0 0.00 0.00 0.00 74 1012.4
20260904223105 88 224 0.0 0.0 0.00 0.00 0.00 73 1012.4
20260904222601 88 222 0.0 0.0 0.00 0.00 0.00 69 1012.4
20260904222056 88 222 0.0 0.0 0.00 0.00 0.00 70 1012.5
20260904221556 88 222 0.0 0.0 0.00 0.00 0.00 70 1012.3
20260904221056 89 222 0.0 0.0 0.00 0.00 0.00 69 1012.5
20260904220550 89 225 0.0 0.0 0.00 0.00 0.00 67 1012.5
20260904220046 88 221 0.0 0.0 0.00 0.00 0.00 65 1012.3
20260904215545 89 222 0.0 0.0 0.00 0.00 0.00 68 1012.5
20260904215036 89 222 0.0 0.0 0.00 0.00 0.00 69 1012.6
20260904214531 89 218 0.0 0.0 0.00 0.00 0.00 68 1012.6
20260904214027 90 219 0.0 0.0 0.00 0.00 0.00 65 1012.6
20260904213524 91 223 0.0 0.0 0.00 0.00 0.00 64 1012.7
20260904213022 91 226 0.0 0.0 0.00 0.00 0.00 63 1012.8
20260904212520 92 223 0.0 0.0 0.00 0.00 0.00 61 1012.7
20260904212016 91 228 0.0 0.0 0.00 0.00 0.00 61 1012.7
20260904211510 93 252 0.0 0.0 0.00 0.00 0.00 60 1012.8
20260904211006 94 219 0.0 0.0 0.00 0.00 0.00 59 1012.4
20260904210505 94 223 0.0 0.0 0.00 0.00 0.00 57 1012.8
20260904210000 94 223 0.0 0.0 0.00 0.00 0.00 57 1012.8
20260904205456 94 220 0.0 0.0 0.00 0.00 0.00 56 1012.9
20260904204953 94 214 0.0 0.0 0.00 0.00 0.00 56 1013.0
20260904204448 94 263 0.0 1.0 0.00 0.00 0.00 55 1012.8
20260904203944 95 212 0.0 0.0 0.00 0.00 0.00 54 1013.2
20260904203440 96 245 0.0 0.0 0.00 0.00 0.00 52 1013.3
20260904202936 96 273 0.0 0.0 0.00 0.00 0.00 53 1013.3
20260904202432 95 217 0.0 0.0 0.00 0.00 0.00 53 1013.3
20260904201928 95 204 0.0 0.0 0.00 0.00 0.00 53 1013.4
20260904201423 95 203 0.0 0.0 0.00 0.00 0.00 54 1013.2
20260904200918 94 201 0.0 0.0 0.00 0.00 0.00 54 1013.5
20260904200417 94 205 0.0 0.0 0.00 0.00 0.00 53 1013.4
20260904195912 94 200 0.0 0.0 0.00 0.00 0.00 54 1013.5
20260904195410 93 200 0.0 0.0 0.00 0.00 0.00 57 1013.4
20260904194905 93 194 0.0 0.0 0.00 0.00 0.00 55 1013.6
20260904194404 94 189 0.0 0.0 0.00 0.00 0.00 56 1013.8
20260904193859 94 207 0.0 0.0 0.00 0.00 0.00 54 1013.8
20260904193355 94 215 0.0 0.0 0.00 0.00 0.00 54 1013.9
20260904192850 94 198 0.0 0.0 0.00 0.00 0.00 53 1013.9
20260904192345 94 212 0.0 0.0 0.00 0.00 0.00 56 1014.0
20260904191842 94 211 0.0 0.0 0.00 0.00 0.00 56 1014.2
20260904191338 94 221 0.0 0.0 0.00 0.00 0.00 55 1014.2
20260904190834 93 217 0.0 0.0 0.00 0.00 0.00 56 1014.4
20260904190330 92 215 0.0 0.0 0.00 0.00 0.00 64 1014.6
20260904185826 92 226 0.0 0.0 0.00 0.00 0.00 63 1014.7
20260904185321 91 221 0.0 0.0 0.00 0.00 0.00 63 1014.5
20260904184821 91 221 0.0 0.0 0.00 0.00 0.00 64 1014.3
20260904184315 91 221 0.0 0.0 0.00 0.00 0.00 63 1014.5
20260904183811 91 221 0.0 0.0 0.00 0.00 0.00 64 1014.7
20260904183306 91 210 0.0 0.0 0.00 0.00 0.00 68 1015.0
20260904182801 91 210 0.0 0.0 0.00 0.00 0.00 66 1014.7
20260904182256 93 211 0.0 0.0 0.00 0.00 0.00 63 1014.7
20260904181751 94 212 0.0 0.0 0.00 0.00 0.00 55 1014.6
20260904181246 95 221 0.0 0.0 0.00 0.00 0.00 55 1014.8
20260904180741 95 220 0.0 0.0 0.00 0.00 0.00 54 1015.0
20260904180237 95 218 0.0 0.0 0.00 0.00 0.00 55 1015.0
20260904175735 95 257 0.0 0.0 0.00 0.00 0.00 55 1014.8
20260904175234 95 219 1.0 2.0 0.00 0.00 0.00 53 1015.0
20260904174729 95 224 0.0 0.0 0.00 0.00 0.00 56 1014.9
20260904174225 95 213 0.0 0.0 0.00 0.00 0.00 57 1015.1
20260904173721 94 215 0.0 0.0 0.00 0.00 0.00 61 1015.1
20260904173221 94 221 0.0 0.0 0.00 0.00 0.00 57 1015.1
20260904172718 93 221 0.0 0.0 0.00 0.00 0.00 57 1015.3
20260904172216 94 234 0.0 0.0 0.00 0.00 0.00 56 1015.2
20260904171712 94 224 0.0 0.0 0.00 0.00 0.00 55 1015.3
20260904171207 94 277 1.0 2.0 0.00 0.00 0.00 60 1015.5
20260904170703 94 209 0.0 0.0 0.00 0.00 0.00 58 1015.5
20260904170159 93 221 0.0 0.0 0.00 0.00 0.00 60 1015.4
20260904165657 93 262 0.0 0.0 0.00 0.00 0.00 59 1015.5
20260904165157 93 224 0.0 0.0 0.00 0.00 0.00 60 1015.5
20260904164652 93 229 0.0 0.0 0.00 0.00 0.00 61 1015.6
20260904164147 92 215 0.0 0.0 0.00 0.00 0.00 65 1015.6
20260904163642 92 214 0.0 0.0 0.00 0.00 0.00 65 1015.6
20260904163132 91 224 0.0 0.0 0.00 0.00 0.00 65 1015.7
20260904162631 91 216 0.0 0.0 0.00 0.00 0.00 67 1015.7
20260904162126 91 224 0.0 0.0 0.00 0.00 0.00 69 1015.8
20260904161622 91 215 0.0 0.0 0.00 0.00 0.00 70 1015.6
20260904161116 91 215 0.0 0.0 0.00 0.00 0.00 69 1015.8
20260904160612 90 222 0.0 0.0 0.00 0.00 0.00 70 1015.8
20260904160108 90 225 0.0 0.0 0.00 0.00 0.00 71 1015.9
20260904155607 90 216 0.0 0.0 0.00 0.00 0.00 71 1015.6
20260904155056 89 214 0.0 0.0 0.00 0.00 0.00 73 1016.0
20260904154550 90 218 0.0 0.0 0.00 0.00 0.00 72 1015.7
20260904154045 90 215 0.0 0.0 0.00 0.00 0.00 73 1015.9
20260904153544 89 236 0.0 0.0 0.00 0.00 0.00 73 1015.9
20260904153041 89 236 0.0 1.0 0.00 0.00 0.00 72 1015.8
20260904152536 89 222 0.0 0.0 0.00 0.00 0.00 75 1015.9
20260904152032 89 224 0.0 0.0 0.00 0.00 0.00 73 1015.9
20260904151526 89 222 0.0 0.0 0.00 0.00 0.00 75 1016.0
20260904151021 89 222 0.0 0.0 0.00 0.00 0.00 75 1015.8
20260904150520 89 223 0.0 0.0 0.00 0.00 0.00 77 1015.7
20260904150015 89 223 0.0 0.0 0.00 0.00 0.00 75 1015.8
20260904145510 89 222 0.0 0.0 0.00 0.00 0.00 75 1016.0
20260904145005 88 224 0.0 0.0 0.00 0.00 0.00 75 1015.7
20260904144501 88 225 0.0 0.0 0.00 0.00 0.00 77 1015.8
20260904143956 87 225 0.0 0.0 0.00 0.00 0.00 78 1015.6
20260904143452 86 223 0.0 0.0 0.00 0.00 0.00 78 1015.8
20260904142949 86 225 0.0 0.0 0.00 0.00 0.00 78 1015.6
20260904142445 84 229 0.0 0.0 0.00 0.00 0.00 79 1015.7
20260904141944 84 226 0.0 0.0 0.00 0.00 0.00 85 1015.5
20260904141439 84 226 0.0 0.0 0.00 0.00 0.00 82 1015.6
20260904140936 83 225 0.0 0.0 0.00 0.00 0.00 86 1015.7
20260904140435 82 225 0.0 0.0 0.00 0.00 0.00 86 1015.7
20260904135935 82 225 0.0 0.0 0.00 0.00 0.00 87 1015.8
20260904135434 82 225 0.0 0.0 0.00 0.00 0.00 87 1015.5
20260904134931 81 230 0.0 0.0 0.00 0.00 0.00 87 1015.6
20260904134431 80 226 0.0 0.0 0.00 0.00 0.00 88 1015.5
20260904133925 80 224 0.0 0.0 0.00 0.00 0.00 89 1015.6
20260904133420 80 224 0.0 0.0 0.00 0.00 0.00 89 1015.6
20260904132916 79 224 0.0 0.0 0.00 0.00 0.00 90 1015.5
20260904132410 79 224 0.0 0.0 0.00 0.00 0.00 90 1015.6
20260904131910 78 224 0.0 0.0 0.00 0.00 0.00 91 1015.5
20260904131400 78 224 0.0 0.0 0.00 0.00 0.00 91 1015.5
20260904130855 78 224 0.0 0.0 0.00 0.00 0.00 91 1015.5
20260904130355 78 224 0.0 0.0 0.00 0.00 0.00 92 1015.7
20260904125850 77 224 0.0 0.0 0.00 0.00 0.00 93 1015.3
20260904125346 76 224 0.0 0.0 0.00 0.00 0.00 94 1015.3
20260904124844 75 224 0.0 0.0 0.00 0.00 0.00 94 1015.3
20260904124341 75 224 0.0 0.0 0.00 0.00 0.00 95 1015.3
20260904123836 75 224 0.0 0.0 0.00 0.00 0.00 95 1015.1
20260904123332 75 224 0.0 0.0 0.00 0.00 0.00 95 1015.4
20260904122827 74 225 0.0 0.0 0.00 0.00 0.00 95 1015.2
20260904122327 74 225 0.0 0.0 0.00 0.00 0.00 96 1015.2
20260904121822 74 225 0.0 0.0 0.00 0.00 0.00 96 1015.1
20260904121318 74 225 0.0 0.0 0.00 0.00 0.00 96 1015.2
20260904120815 74 226 0.0 0.0 0.00 0.00 0.00 96 1015.0
20260904120310 74 225 0.0 0.0 0.00 0.00 0.00 95 1015.2
20260904115804 74 225 0.0 0.0 0.00 0.00 0.00 95 1015.2
20260904115300 74 225 0.0 0.0 0.00 0.00 0.00 95 1014.9
20260904114754 74 225 0.0 0.0 0.00 0.00 0.00 96 1015.0
20260904114254 74 225 0.0 0.0 0.00 0.00 0.00 96 1014.9
20260904113750 74 226 0.0 0.0 0.00 0.00 0.00 96 1014.8
20260904113248 74 229 0.0 0.0 0.00 0.00 0.00 96 1014.8
20260904112743 74 227 0.0 0.0 0.00 0.00 0.00 96 1014.7
20260904112239 74 227 0.0 0.0 0.00 0.00 0.00 96 1014.5
20260904111735 73 232 0.0 0.0 0.00 0.00 0.00 96 1014.5
20260904111231 73 227 0.0 0.0 0.00 0.00 0.00 96 1014.6
20260904110726 73 226 0.0 0.0 0.00 0.00 0.00 96 1014.5
20260904110225 74 226 0.0 0.0 0.00 0.00 0.00 95 1014.6
20260904105720 74 226 0.0 0.0 0.00 0.00 0.00 96 1014.3
20260904105214 74 226 0.0 0.0 0.00 0.00 0.00 96 1014.5
20260904104710 74 226 0.0 0.0 0.00 0.00 0.00 96 1014.4
20260904104206 74 226 0.0 0.0 0.00 0.00 0.00 96 1014.2
20260904103702 74 226 0.0 0.0 0.00 0.00 0.00 96 1014.2
20260904103157 74 226 0.0 0.0 0.00 0.00 0.00 96 1014.2
20260904102653 74 226 0.0 0.0 0.00 0.00 0.00 96 1014.2
20260904102148 74 226 0.0 0.0 0.00 0.00 0.00 96 1014.3
20260904101645 74 226 0.0 0.0 0.00 0.00 0.00 96 1014.1
20260904101140 74 226 0.0 0.0 0.00 0.00 0.00 96 1014.1
20260904100636 74 226 0.0 0.0 0.00 0.00 0.00 95 1014.3
20260904100131 74 226 0.0 0.0 0.00 0.00 0.00 95 1014.0
20260904095626 74 226 0.0 0.0 0.00 0.00 0.00 95 1014.0
20260904095125 74 226 0.0 0.0 0.00 0.00 0.00 95 1013.7
20260904094620 75 226 0.0 0.0 0.00 0.00 0.00 95 1014.0
20260904094115 75 227 0.0 0.0 0.00 0.00 0.00 95 1013.9
20260904093612 75 225 0.0 0.0 0.00 0.00 0.00 95 1013.8
20260904093107 75 224 0.0 0.0 0.00 0.00 0.00 95 1013.7
20260904092603 75 224 0.0 0.0 0.00 0.00 0.00 94 1013.9
20260904092059 75 225 0.0 0.0 0.00 0.00 0.00 94 1013.7
20260904091555 75 225 0.0 0.0 0.00 0.00 0.00 94 1014.2
20260904091054 75 230 0.0 0.0 0.00 0.00 0.00 94 1014.0
20260904090550 75 226 0.0 0.0 0.00 0.00 0.00 94 1014.1
20260904090045 75 224 0.0 0.0 0.00 0.00 0.00 94 1013.9
20260904085540 75 224 0.0 0.0 0.00 0.00 0.00 94 1013.8
20260904085039 75 235 0.0 0.0 0.00 0.00 0.00 95 1014.0
20260904084536 75 225 0.0 0.0 0.00 0.00 0.00 95 1014.0
20260904084032 75 225 0.0 0.0 0.00 0.00 0.00 95 1013.9
20260904083527 75 225 0.0 0.0 0.00 0.00 0.00 94 1014.0
20260904083023 75 225 0.0 0.0 0.00 0.00 0.00 94 1014.0
20260904082518 75 225 0.0 0.0 0.00 0.00 0.00 94 1014.1
20260904082013 75 225 0.0 0.0 0.00 0.00 0.00 94 1014.3
20260904081508 75 225 0.0 0.0 0.00 0.00 0.00 94 1014.0
20260904081004 75 231 0.0 0.0 0.00 0.00 0.00 93 1014.0
20260904080459 76 224 0.0 0.0 0.00 0.00 0.00 93 1014.0
20260904075955 76 224 0.0 0.0 0.00 0.00 0.00 93 1014.0
20260904075451 76 224 0.0 0.0 0.00 0.00 0.00 92 1013.8
20260904074950 76 242 0.0 0.0 0.00 0.00 0.00 92 1013.7
20260904074445 76 224 0.0 0.0 0.00 0.00 0.00 92 1013.9
20260904073940 77 224 0.0 0.0 0.00 0.00 0.00 92 1013.8
20260904073435 77 226 0.0 0.0 0.00 0.00 0.00 91 1013.8
20260904072925 76 230 0.0 0.0 0.00 0.00 0.00 92 1013.8
20260904072421 76 224 0.0 0.0 0.00 0.00 0.00 92 1013.9
20260904071916 77 225 0.0 0.0 0.00 0.00 0.00 92 1013.8
20260904071412 77 225 0.0 0.0 0.00 0.00 0.00 92 1013.8
20260904070906 77 225 0.0 0.0 0.00 0.00 0.00 91 1014.0
20260904070405 76 230 0.0 0.0 0.00 0.00 0.00 89 1013.8
20260904065904 77 226 0.0 0.0 0.00 0.00 0.00 92 1013.9
20260904065401 77 228 0.0 0.0 0.00 0.00 0.00 92 1014.1
20260904064900 77 223 0.0 0.0 0.00 0.00 0.00 92 1014.1
20260904064356 77 223 0.0 0.0 0.00 0.00 0.00 92 1014.1
20260904063852 77 223 0.0 0.0 0.00 0.00 0.00 91 1014.2
20260904063349 76 223 0.0 0.0 0.00 0.00 0.00 90 1014.4
20260904062844 76 222 0.0 0.0 0.00 0.00 0.00 93 1014.3
20260904062340 76 222 0.0 0.0 0.00 0.00 0.00 93 1014.1
20260904061836 76 222 0.0 0.0 0.00 0.00 0.00 93 1014.2
20260904061331 76 223 0.0 0.0 0.00 0.00 0.00 93 1014.1
20260904060827 76 222 0.0 0.0 0.00 0.00 0.00 93 1014.3
20260904060323 76 221 0.0 0.0 0.00 0.00 0.00 94 1014.4
20260904055818 77 223 0.0 0.0 0.00 0.00 0.00 92 1014.2
20260904055314 77 223 0.0 0.0 0.00 0.00 0.00 92 1014.1
20260904054809 77 223 0.0 0.0 0.00 0.00 0.00 91 1014.1
20260904054305 77 224 0.0 0.0 0.00 0.00 0.00 91 1014.0